Weather History for Laramie, WY

Change the Weather History Date:

Wednesday, March 13, 2013

  Actual Average Record
Temperature  
Mean Temperature 35 °F 30 °F  
Max Temperature 46 °F 42 °F 62 °F (2007)
Min Temperature 24 °F 18 °F -14 °F (1962)
Degree Days  
Heating Degree Days 30 35  
Month to date heating degree days 446 472  
Since 1 July heating degree days 6350 6648  
Cooling Degree Days 0 0  
Month to date cooling degree days 0 0  
Year to date cooling degree days 0 0  
Moisture  
Dew Point 26 °F    
Average Humidity 65    
Maximum Humidity 81    
Minimum Humidity 49    
Precipitation  
Precipitation 0.00 in 0.02 in 0.47 in (2002)
Month to date precipitation 0.20 0.22  
Year to date precipitation 0.77 0.83  
Sea Level Pressure  
Sea Level Pressure 30.23 in    
Wind  
Wind Speed 13 mph (West)    
Max Wind Speed 32 mph    
Max Gust Speed 37 mph    
Visibility 10 miles    
Events      
T = Trace of Precipitation, MM = Missing Value Source: NWS Daily Summary

Daily Weather History Graph

Daily Weather History Graph

Search for Another Location

Airport:

Trip Planner

Search our weather history database for the weather conditions in past years. The results will help you decide how hot, cold, wet, or windy it might be!

Date:

Astronomy

Mar. 13, 2013 Rise Set
Actual Time 7:17 AM MDT 7:07 PM MDT
Civil Twilight 6:49 AM MDT 7:35 PM MDT
Nautical Twilight 6:17 AM MDT 8:07 PM MDT
Astronomical Twilight 5:45 AM MDT 8:39 PM MDT
Moon 7:56 AM MDT (3/13) 9:28 PM MDT (3/13)
Length of Visible Light 12h 45m
Length of Day
11h 50m
Waxing Crescent, 4% of the Moon is Illuminated
Mar 13
Waxing Crescent
Mar 19
First Quarter
Mar 27
Full
Apr 2
Last Quarter
Apr 10
New

Hourly Weather History & Observations

Time (MDT) Temp. Windchill Dew Point Humidity Pressure Visibility Wind Dir Wind Speed Gust Speed Precip Events Conditions
12:53 AM 33.1 °F 21.5 °F 24.1 °F 70% 30.23 in 10.0 mi SW 19.6 mph - N/A   Clear
1:53 AM 32.0 °F 21.2 °F 25.0 °F 75% 30.21 in 10.0 mi West 16.1 mph 21.9 mph N/A   Clear
2:53 AM 30.9 °F 20.7 °F 23.0 °F 72% 30.23 in 10.0 mi SW 13.8 mph - N/A   Clear
3:53 AM 28.9 °F 16.1 °F 21.9 °F 75% 30.23 in 10.0 mi WSW 19.6 mph - N/A   Clear
4:53 AM 33.1 °F 20.3 °F 24.1 °F 70% 30.21 in 10.0 mi West 24.2 mph - N/A   Clear
5:53 AM 32.0 °F 20.8 °F 23.0 °F 69% 30.22 in 10.0 mi West 17.3 mph 31.1 mph N/A   Clear
6:53 AM 28.0 °F 20.8 °F 19.9 °F 72% 30.29 in 10.0 mi SSW 6.9 mph - N/A   Clear
7:53 AM 25.0 °F 14.8 °F 19.0 °F 78% 30.27 in 10.0 mi West 10.4 mph - N/A   Clear
8:53 AM 30.0 °F 21.1 °F 23.0 °F 75% 30.27 in 10.0 mi West 10.4 mph - N/A   Clear
9:53 AM 34.0 °F 24.6 °F 26.1 °F 73% 30.27 in - West 13.8 mph - N/A   Clear
10:53 AM 36.0 °F 28.5 °F 28.0 °F 73% 30.25 in 10.0 mi West 10.4 mph - N/A   Clear
11:53 AM 37.9 °F 28.5 °F 28.9 °F 70% 30.23 in 10.0 mi WSW 17.3 mph - N/A   Clear
12:53 PM 39.0 °F 32.3 °F 28.9 °F 67% 30.23 in 10.0 mi West 10.4 mph - N/A   Clear
1:53 PM 42.1 °F 36.6 °F 27.0 °F 55% 30.20 in 10.0 mi West 9.2 mph - N/A   Clear
2:53 PM 43.0 °F 36.0 °F 25.0 °F 49% 30.19 in 10.0 mi WNW 13.8 mph - N/A   Clear
3:53 PM 42.1 °F 38.4 °F 28.0 °F 58% 30.20 in 10.0 mi West 5.8 mph - N/A   Clear
4:53 PM 41.0 °F 36.4 °F 28.0 °F 60% 30.19 in 10.0 mi West 6.9 mph - N/A   Clear
5:53 PM 41.0 °F 32.2 °F 28.0 °F 60% 30.18 in 10.0 mi West 18.4 mph - N/A   Clear
6:53 PM 39.9 °F 31.8 °F 28.0 °F 63% 30.24 in 10.0 mi West 15.0 mph - N/A   Clear
7:53 PM 39.0 °F 31.0 °F 28.0 °F 65% 30.25 in 10.0 mi WNW 13.8 mph - N/A   Clear
8:53 PM 35.1 °F 26.9 °F 28.0 °F 76% 30.26 in 10.0 mi West 11.5 mph - N/A   Clear
9:53 PM 37.0 °F 29.3 °F 27.0 °F 67% 30.24 in 10.0 mi WSW 11.5 mph - N/A   Clear
10:53 PM 36.0 °F 29.6 °F 27.0 °F 70% 30.25 in - WSW 8.1 mph - N/A   Clear
11:53 PM 39.9 °F 33.4 °F 26.1 °F 58% 30.22 in 10.0 mi WSW 10.4 mph 19.6 mph N/A   Clear